Regional Weather Roundup
Issued by NWS

Home | Current Version | Previous Version | Graphics & Text | Print | Product List | Glossary On
Versions: 1 2 3 4 5 6 7 8 9 10 11 12 13 14 15 16 17 18 19 20 21 22 23 24 25 26 27 28 29 30 31 32 33 34 35 36 37 38 39 40 41 42 43 44 45 46 47 48 49 50
511
ASUS45 KCYS 040010
RWRWY

WYOMING REGIONAL WEATHER ROUNDUP
NATIONAL WEATHER SERVICE CHEYENNE WY
600 PM MDT TUE MAY 03 2016

NOTE:  "FAIR" INDICATES FEW OR NO CLOUDS BELOW 12,000 FEET
WITH NO SIGNIFICANT WEATHER AND/OR OBSTRUCTIONS TO VISIBILITY.

WYZ001-040100-
YELLOWSTONE NATIONAL PARK

CITY           SKY/WX    TMP DP  RH WIND       PRES   REMARKS
LK YELLOWSTONE   N/A     54  22  28 E5        30.32F
6HR MIN TEMP:  48; 6HR MAX TEMP:  55;

W YELLOWSTONE  NOT AVBL

$$
WYZ002>013-054>058-071-098>099-040100-
NORTHERN WYOMING

CITY           SKY/WX    TMP DP  RH WIND       PRES   REMARKS
JACKSON        FAIR      66  18  15 N3        30.23F
CODY           FAIR      72  28  20 E6        30.14F
GREYBULL       FAIR      77  16  10 CALM      30.09F
6HR MIN TEMP:  66; 6HR MAX TEMP:  78;

WORLAND        FAIR      74  26  16 CALM      30.12F
6HR MIN TEMP:  65; 6HR MAX TEMP:  75;

SHERIDAN       FAIR      72  36  26 SE3       30.13F
6HR MIN TEMP:  69; 6HR MAX TEMP:  74;

BUFFALO        FAIR      70  34  26 N7        30.19S
6HR MIN TEMP:  66; 6HR MAX TEMP:  71;

GILLETTE       FAIR      69  39  33 N9        30.15S
6HR MIN TEMP:  66; 6HR MAX TEMP:  71;

HULETT         FAIR      70  34  26 N9        30.15S
NEWCASTLE      FAIR      72  28  20 N13G20    30.12S

$$
WYZ014>020-022>026-101>103-040100-
CENTRAL WYOMING

CITY           SKY/WX    TMP DP  RH WIND       PRES   REMARKS
BIG PINEY      FAIR      68  21  16 W6        30.25S
6HR MIN TEMP:  59; 6HR MAX TEMP:  68;

PINEDALE       FAIR      61  23  23 SW5       30.25F
DUBOIS         FAIR      59  23  25 SE10G16   30.24S
LANDER         FAIR      68  32  26 VRB6      30.18F
6HR MIN TEMP:  62; 6HR MAX TEMP:  70;

RIVERTON       FAIR      69  30  23 VRB6      30.20S
6HR MIN TEMP:  61; 6HR MAX TEMP:  70;

CASPER         FAIR      68  31  25 VRB3      30.20S
6HR MIN TEMP:  60; 6HR MAX TEMP:  68;

DOUGLAS        FAIR      68  35  29 N9        30.18F
6HR MIN TEMP:  63; 6HR MAX TEMP:  71;


$$
WYZ021-027>030-104>119-040100-
SOUTHERN WYOMING

CITY           SKY/WX    TMP DP  RH WIND       PRES   REMARKS
EVANSTON       FAIR      67  19  16 VRB6      30.25F
6HR MIN TEMP:  58; 6HR MAX TEMP:  68;

KEMMERER         N/A     64  18  16 CALM      30.27F
FORT BRIDGER   CLEAR     66  18  15 E6        30.29F
ROCK SPRINGS   FAIR      64  20  18 CALM      30.26S
6HR MIN TEMP:  57; 6HR MAX TEMP:  66;

DIXON          FAIR      67  28  23 NW8       30.26S
RAWLINS        FAIR      64  26  23 VRB3      30.26S
6HR MIN TEMP:  57; 6HR MAX TEMP:  65;

SARATOGA       FAIR      61  27  27 NW8       30.28S
LARAMIE        FAIR      58  31  35 N5        30.27S
6HR MIN TEMP:  50; 6HR MAX TEMP:  58;

CHEYENNE       FAIR      62  30  29 N14       30.22F
6HR MIN TEMP:  56; 6HR MAX TEMP:  62;

TORRINGTON     FAIR      72  34  24 N12       30.11S
6HR MIN TEMP:  66; 6HR MAX TEMP:  72;

PINE BLUFFS    FAIR      63  34  34 N12       30.18S

$$




USA.gov is the U.S. government's official web portal to all federal, state and local government web resources and services.